(349) Dembowska
ephemeris date magn radius delta ra dec elong phase
Today9 May 202510.43.132 AU2.125 AU15h13m-22°00'174.7°1.7°
Opposition11 May 202510.33.131 AU2.122 AU15h11m-21°57'176.0°1.3°
(349) Dembowska - 2025-05-09
astro.vanbuitenen.nl


 
-1 year
-1 month
-1 day
Now
+1 day
+1 month
+1 year

The interactive orbit chart above shows the body's path through the solar system and its position at the given date. Green and blue lines are shown perpendicular to the ecliptic plane: Green if the path is above the ecliptic plane, blue if it is below. (Left-click and drag to rotate the view; Right-click and drag to move the view; Use scroll wheel to zoom in our out.)

The orbital elements of Dembowska are:

            e (Eccentricity)                : 0.0887058
            a (Semimajor axis)              : 2.9251394
            i (Inclination)                 : 8.24906
            Ω (Longitude of ascending node) : 32.19631
            ω (Argument of perihelion)      : 344.51796
            M (Mean anomaly)                : 219.46953
            Epoch                           : 2025 May 05

            L (Longitude of perihelion)     : 16.86688
            B (Latitude of perihelion)      : -2.19491
            P (Orbital period in years)     : 5.00            
        

The light curve chart below shows the estimated development of the minor planet's magnitude.


The all-sky chart below shows the path of the minor planet over the same period as the light curve. The current position is marked yellow.





The following chart shows the path of the minor planet in the next few days. The field of view is optimized for (~10x50) binoculars and finderscopes. A more printer-friendly version of the same chart can be found below.




Ephemerides:
Date       Time       RA (2000)    DEC (2000)    delta   radius  elong  phase   PA    magn
2025-05-09 00:00 UT   15 13 39.9   -22 00 17     2.125    3.132  174.7    1.7   332   10.4 
2025-05-09 08:50 UT   15 13 19.8   -21 59 51     2.125    3.132  174.9    1.6   336   10.4 
2025-05-10 00:00 UT   15 12 45.4   -21 59 05     2.124    3.131  175.4    1.5   343   10.4 
2025-05-11 00:00 UT   15 11 50.9   -21 57 50     2.123    3.131  175.8    1.3   358   10.3 
2025-05-12 00:00 UT   15 10 56.4   -21 56 31     2.122    3.130  176.0    1.3    14   10.3 
2025-05-13 00:00 UT   15 10 01.8   -21 55 09     2.121    3.130  175.8    1.3    30   10.3 
2025-05-14 00:00 UT   15 09 07.3   -21 53 45     2.121    3.129  175.4    1.5    45   10.3 
2025-05-15 00:00 UT   15 08 13.0   -21 52 17     2.121    3.129  174.7    1.7    56   10.4 
2025-05-16 00:00 UT   15 07 18.8   -21 50 47     2.121    3.128  173.8    2.0    64   10.4 
2025-05-17 00:00 UT   15 06 24.8   -21 49 15     2.122    3.128  172.9    2.3    70   10.4 
2025-05-18 00:00 UT   15 05 31.1   -21 47 41     2.123    3.127  171.9    2.6    75   10.4 
2025-05-19 00:00 UT   15 04 37.7   -21 46 04     2.124    3.127  170.9    2.9    79   10.5 
2025-05-20 00:00 UT   15 03 44.7   -21 44 26     2.125    3.126  169.8    3.3    82   10.5 
2025-05-21 00:00 UT   15 02 52.2   -21 42 46     2.127    3.126  168.7    3.6    84   10.5 
2025-05-22 00:00 UT   15 02 00.1   -21 41 04     2.129    3.125  167.6    4.0    86   10.5 
2025-05-23 00:00 UT   15 01 08.5   -21 39 22     2.131    3.125  166.5    4.3    88   10.5 
2025-05-24 00:00 UT   15 00 17.5   -21 37 38     2.134    3.124  165.4    4.7    89   10.6 
2025-05-25 00:00 UT   14 59 27.2   -21 35 53     2.136    3.124  164.3    5.0    90   10.6 
2025-05-26 00:00 UT   14 58 37.5   -21 34 08     2.140    3.123  163.2    5.4    92   10.6 
2025-05-27 00:00 UT   14 57 48.5   -21 32 22     2.143    3.122  162.1    5.7    93   10.6 
2025-05-28 00:00 UT   14 57 00.3   -21 30 37     2.146    3.122  161.0    6.1    93   10.6 
2025-05-29 00:00 UT   14 56 13.0   -21 28 51     2.150    3.121  159.8    6.4    94   10.7 
2025-05-30 00:00 UT   14 55 26.5   -21 27 06     2.155    3.121  158.7    6.8    95   10.7 
2025-05-31 00:00 UT   14 54 40.9   -21 25 21     2.159    3.120  157.6    7.1    96   10.7 
2025-06-01 00:00 UT   14 53 56.2   -21 23 37     2.164    3.120  156.5    7.5    96   10.7 
2025-06-02 00:00 UT   14 53 12.5   -21 21 54     2.169    3.119  155.4    7.8    97   10.7 
2025-06-03 00:00 UT   14 52 29.8   -21 20 12     2.174    3.119  154.3    8.1    97   10.8 
2025-06-04 00:00 UT   14 51 48.2   -21 18 31     2.179    3.118  153.2    8.4    98   10.8 
2025-06-05 00:00 UT   14 51 07.6   -21 16 52     2.185    3.117  152.1    8.8    98   10.8 
2025-06-06 00:00 UT   14 50 28.1   -21 15 14     2.191    3.117  151.0    9.1    99   10.8 
2025-06-07 00:00 UT   14 49 49.8   -21 13 39     2.197    3.116  149.9    9.4    99   10.8 
2025-06-08 00:00 UT   14 49 12.6   -21 12 05     2.203    3.116  148.8    9.7    99   10.9 


    Terminology:
            
    delta:  distance between minor planet and earth in AU
    radius: distance between minor planet and sun in AU
    magn:   magnitude (brightness) estimate    
    ra:     right ascension in hours (24h = 360deg)
    dec:    declination in degrees
    elong:  elongation in degrees (angle sun-earth-minor planet)    
    phase:  phase angle in degrees (angle sun-minor planet-earth)        
    AU:     Astronomical Unit (mean distance between earth and sun: 149597870.7 km
    

Orbital elements provided by the MPC (Minor Planet Center).
Calculations by a modified version of AAPlus, a C# implementation of the AA+ project by PJ Naughter from the algorithms presented in the book "Astronomical Algorithms" by Jean Meeus.
NGC2000 dso catalog and star labels from VizieR as provided by the Strasbourg astronomical Data Center.
Tycho2 catalog from the ESO archive.